Zurück zum Katalog

COSMOS 1577

AktivNavigationPO
NORAD 15077·PAYLOAD·🇷🇺 Russia

Gestartet Jun 27, 1984 von Plesetsk Cosmodrome

Loading…

Nächste Überflüge (nächste 24 Stunden)

TLE

AktuellSource: Space-Track

Epoche: Sep 14, 2026, 09:46 UTC

1 15077U 84067A   26257.40739471  .00000067  00000-0  53174-4 0  9999
2 15077  82.9583 140.3030 0036967 106.4722  67.1488 13.75685167865744

Verfolge COSMOS 1577 in Echtzeit mit AllMySat

Download on the App Store